Satellite-Ground Cal/Val Region Overpasses Predictions

Prediction of Satellite NPP Overpassing Cal/Val Region: PacNW

Region Location: (Latitude: 10.00, Longitude: 139.50) to (Latitude: 22.70, Longitude: 165.60).

Table of predicted overpasses for the next 14.0 days since TLE Epoch: 8/30/2013
Interval Starting Time Starting Location Ending Time Ending Location
1 08/30/2013 14:30:20 ( 11.92, 165.60) 08/30/2013 14:30:52 ( 10.04, 165.16)
2 08/30/2013 16:08:47 ( 22.66, 142.80) 08/30/2013 16:12:22 ( 10.04, 139.79)
3 08/31/2013 03:17:53 ( 10.05, 150.30) 08/31/2013 03:21:28 ( 22.67, 147.29)
4 08/31/2013 15:49:46 ( 22.64, 147.55) 08/31/2013 15:53:21 ( 10.02, 144.54)
5 09/01/2013 02:58:51 ( 10.01, 155.07) 09/01/2013 03:02:27 ( 22.69, 152.05)
6 09/01/2013 15:30:45 ( 22.68, 152.32) 09/01/2013 15:34:21 ( 10.00, 149.29)
7 09/02/2013 02:39:51 ( 10.03, 159.82) 09/02/2013 02:43:26 ( 22.65, 156.81)
8 09/02/2013 15:11:44 ( 22.66, 157.07) 09/02/2013 15:15:19 ( 10.04, 154.06)
9 09/03/2013 02:20:50 ( 10.05, 164.57) 09/03/2013 02:24:25 ( 22.67, 161.56)
10 09/03/2013 14:52:43 ( 22.70, 161.83) 09/03/2013 14:56:19 ( 10.02, 158.81)
11 09/04/2013 03:43:19 ( 10.01, 143.96) 09/04/2013 03:46:55 ( 22.69, 140.94)
12 09/04/2013 14:34:51 ( 18.63, 165.59) 09/04/2013 14:37:17 ( 10.06, 163.57)
13 09/04/2013 16:15:12 ( 22.68, 141.21) 09/04/2013 16:17:11 ( 15.70, 139.51)
14 09/05/2013 03:24:18 ( 10.03, 148.71) 09/05/2013 03:27:53 ( 22.65, 145.70)
15 09/05/2013 15:56:12 ( 22.66, 145.96) 09/05/2013 15:59:47 ( 10.03, 142.95)
16 09/06/2013 03:05:18 ( 10.05, 153.46) 09/06/2013 03:08:53 ( 22.67, 150.46)
17 09/06/2013 15:37:10 ( 22.69, 150.73) 09/06/2013 15:40:46 ( 10.01, 147.70)
18 09/07/2013 02:46:16 ( 10.02, 158.23) 09/07/2013 02:49:52 ( 22.69, 155.21)
19 09/07/2013 15:18:10 ( 22.67, 155.48) 09/07/2013 15:21:45 ( 10.05, 152.47)
20 09/08/2013 02:27:16 ( 10.04, 162.98) 09/08/2013 02:30:51 ( 22.66, 159.97)
21 09/08/2013 14:59:10 ( 22.65, 160.23) 09/08/2013 15:02:45 ( 10.02, 157.22)
22 09/09/2013 02:10:50 ( 19.16, 165.59) 09/09/2013 02:11:50 ( 22.68, 164.72)
23
